• MPC Preparation (Info)

  • MPEC 2022-U219 : 2022 UU7

    The following Minor Planet Electronic Circular may be linked-to from your own Web pages, but must not otherwise be redistributed electronically.

    A form allowing access to any MPEC is at the bottom of this page.


    Read MPEC 2022-U218 Read MPEC 2022-U220


    M.P.E.C. 2022-U219                             Issued 2022 October 24, 10:48 UT
    
         The Minor Planet Electronic Circulars contain information on unusual
             minor planets and routine data on comets.  They are published
        on behalf of Division F of the International Astronomical Union by the
              Minor Planet Center, Smithsonian Astrophysical Observatory,
                              Cambridge, MA 02138, U.S.A.
    
                 Prepared using the Tamkin Foundation Computer Network
    
                                  MPC@CFA.HARVARD.EDU
                URL https://www.minorplanetcenter.net/    ISSN 1523-6714
    
                                    2022 UU7                                 
    
    
    Observations:
         K22U07U*KC2022 10 18.97171 03 42 05.894-38 03 45.79         19.9 GXEU219L87
         K22U07U KC2022 10 18.97324 03 42 05.683-38 03 27.90         19.7 GXEU219L87
         K22U07U KC2022 10 18.97785 03 42 05.090-38 02 31.96         19.9 GXEU219L87
         K22U07U KC2022 10 18.97787 03 42 05.076-38 02 31.81         20.1 GXEU219L87
         K22U07U KC2022 10 18.98247 03 42 04.471-38 01 36.30         19.5 GXEU219L87
         K22U07U KC2022 10 18.98402 03 42 04.234-38 01 18.80         19.7 GXEU219L87
         K22U07U  C2022 10 23.45768603 37 15.694-26 33 39.30         20.63wUEU219F52
         K22U07U  C2022 10 23.46720403 37 14.856-26 32 32.54         20.40wUEU219F52
         K22U07U  C2022 10 23.47669603 37 14.025-26 31 25.49         20.58wUEU219F52
         K22U07U  C2022 10 23.48619203 37 13.172-26 30 18.78         20.51wUEU219F52
         K22U07U KC2022 10 24.02019 03 36 45.749-25 28 09.70         19.8 GXEU219L87
         K22U07U KC2022 10 24.03478 03 36 44.537-25 26 32.06         19.9 GXEU219L87
         K22U07U KC2022 10 24.04696 03 36 43.507-25 25 10.60         19.7 GXEU219L87
    
    Observer details:
    F52 Pan-STARRS 2, Haleakala.  Observers J. Bulger, T. Lowe, A. Schultz, I.
        Smith.  Measurers K. Chambers, S. Chastel, T. de Boer, J. Fairlamb, H.
        Gao, M. Huber, C.-C. Lin, E. Magnier, Y. Ramanjooloo, R. Wainscoat, R.
        Weryk.  1.8-m Ritchey-Chretien + CCD.
    L87 Moonbase South Observatory, Hakos.  Observer G. Duszanowicz.  Measurer J.
        Camarasa.  0.28-m f/1.9 reflector + CCD, 0.36-m f/7.7 reflector + CCD.
    
    Orbital elements:
    2022 UU7                                                 Earth MOID = 0.0465 AU
    Epoch 2022 Aug. 9.0 TT = JDT 2459800.5                  Veres                   
    M 349.58304              (2000.0)            P               Q                  
    n   0.28896138     Peri.  176.61532     +0.94582588     +0.32372495             
    a   2.2659110      Node   164.42687     -0.30001109     +0.90063682             
    e   0.5902927      Incl.    5.30253     -0.12412391     +0.28992323             
    P   3.41           H   23.54          G   0.15           U   9                  
    Residuals in seconds of arc
    221018 L87  0.3-  1.1-    221018 L87  0.0   0.6+    221023 F52  0.0   0.2-
    221018 L87  0.3-  1.3-    221023 F52  0.1-  0.1+    221024 L87  0.4-  0.2+
    221018 L87  0.1+  0.3+    221023 F52  0.0   0.1-    221024 L87  0.1-  0.2+
    221018 L87  0.3+  1.4+    221023 F52  0.1+  0.1+    221024 L87  0.1-  0.0
    
    Ephemeris:
    2022 UU7                 a,e,i = 2.27, 0.59, 5                   q = 0.9284
    Date    TT    R. A. (2000) Decl.     Delta      r    Elong.  Phase     V
    2022 09 24    15 20 52.7 -26 06 59   0.1203  0.9383    54.3   119.7    23.6
    ...
    2022 10 09    13 53 16.6 -82 24 23   0.05137 0.9884    76.6   100.5    20.7
    ...
    2022 10 17    03 45 25.2 -45 29 21   0.06788 1.0295   117.2    59.5    19.9
    ...
    2022 10 23    03 37 38.1 -27 28 07   0.09934 1.0656   133.2    42.9    20.3
    2022 10 24    03 36 47.0 -25 30 27   0.1052  1.0720   135.1    40.9    20.4
    2022 10 25    03 35 59.1 -23 44 19   0.1113  1.0784   136.8    39.1    20.5
    ...
    2022 10 31    03 31 54.0 -15 55 47   0.1497  1.1192   145.2    30.4    21.0
    ...
    2022 11 08    03 27 34.7 -09 35 39   0.2062  1.1776   152.5    22.9    21.6
    ...
    2022 11 23    03 22 27.1 -02 28 49   0.3293  1.2957   156.1    18.0    22.6
    
    M. P. C. Staff               (C) Copyright 2022 MPC           M.P.E.C. 2022-U219
    


    Read MPEC 2022-U218 Read MPEC 2022-U220


    MPEC number:

    Enter an MPEC number in one of the following forms:

    • 1997-B01 (the full form)
    • J97B01 (the packed version of the full form)
    • B01 (the abbreviated form)